Date String (YYYY-MM-DD hh:mm:ss) UTC,Instrument flags,Ambient pressure (hPa),Sample flow (lpm),Bypass flow (lpm),Sample temperature (°C),Ambient temperature (°C),ASC tube jacket temperature (°C),LED temperature (°C),Box temperature (°C),Sample RH (%),Span deviation,Mass concentration (μg/m³),Mass concentration (μg/m³),Mass concentration (μg/m³)
DateTimeUTC,F1_M11,P_M11,Q1_M11,Q2_M11,T1_M11,T2_M11,T3_M11,T4_M11,T5_M11,U1_M11,ZSPAN_M11,X2_M11,X0_M11,X1_M11
2023-02-09 09:00:00,,0827.7,4.99,0.00,22.8,22.8,00.0,31.5,24.8,09.1,0000.0,0000.66,0001.97,0000.39
2023-02-09 09:01:00,,0827.7,4.99,0.00,22.8,22.6,00.0,31.5,24.8,08.9,0000.0,0000.64,0001.93,0000.39
2023-02-09 09:02:00,,0827.7,4.99,0.00,22.8,22.3,00.0,31.6,24.7,08.9,0000.0,0000.63,0001.90,0000.39
2023-02-09 09:03:00,,0827.7,4.95,0.00,22.8,22.0,00.0,31.6,24.6,08.9,0000.0,0000.63,0001.15,0000.40
2023-02-09 09:04:00,,0827.8,4.93,0.00,22.8,21.8,00.0,31.6,24.6,08.8,0000.0,0000.65,0001.18,0000.40
2023-02-09 09:05:00,,0827.8,4.97,0.00,22.8,21.6,00.0,31.6,24.6,08.3,0000.0,0000.63,0001.14,0000.39
2023-02-09 09:06:00,,0827.9,4.95,0.00,22.8,21.5,00.0,31.6,24.5,08.5,0000.0,0000.63,0001.17,0000.39
2023-02-09 09:07:00,,0827.9,5.02,0.00,22.8,21.4,00.0,31.6,24.5,08.7,0000.0,0000.65,0001.21,0000.38
2023-02-09 09:08:00,,0827.9,5.00,0.00,22.8,21.3,00.0,31.6,24.5,08.7,0000.0,0000.65,0001.23,0000.38
2023-02-09 09:09:00,,0827.9,4.99,0.00,22.7,21.2,00.0,31.6,24.4,08.5,0000.0,0000.65,0001.34,0000.37
2023-02-09 09:10:00,,0827.9,5.02,0.00,22.7,21.2,00.0,31.6,24.4,08.5,0000.0,0000.61,0001.35,0000.37
2023-02-09 09:11:00,,0827.9,4.97,0.00,22.7,21.1,00.0,31.6,24.4,08.7,0000.0,0000.61,0001.37,0000.37
2023-02-09 09:12:00,,0827.9,4.98,0.00,22.7,21.1,00.0,31.6,24.4,08.8,0000.0,0000.62,0001.39,0000.36
2023-02-09 09:13:00,,0827.8,4.97,0.00,22.7,21.1,00.0,31.6,24.4,08.7,0000.0,0000.66,0001.51,0000.36
2023-02-09 09:14:00,,0827.9,4.97,0.00,22.7,21.0,00.0,31.6,24.4,08.6,0000.0,0000.67,0001.67,0000.35
2023-02-09 09:15:00,,0827.8,5.01,0.00,22.6,21.0,00.0,31.6,24.3,08.3,0000.0,0000.68,0001.72,0000.35
2023-02-09 09:16:00,,0827.8,5.00,0.00,22.6,20.9,00.0,31.5,24.3,08.1,0000.0,0000.66,0001.67,0000.35
2023-02-09 09:17:00,,0827.8,5.01,0.00,22.6,20.7,00.0,31.5,24.2,07.6,0000.0,0000.67,0001.67,0000.36
2023-02-09 09:18:00,,0827.9,5.00,0.00,22.5,20.6,00.0,31.5,24.2,07.7,0000.0,0000.64,0001.60,0000.36
2023-02-09 09:19:00,,0827.8,5.01,0.00,22.5,20.8,00.0,31.5,24.2,07.5,0000.0,0000.59,0002.01,0000.35
2023-02-09 09:20:00,,0828.0,5.04,0.00,22.6,21.8,00.0,31.4,24.4,07.6,0000.0,0000.59,0002.75,0000.34
2023-02-09 09:21:00,,0827.9,5.02,0.00,22.7,22.7,00.0,31.4,24.7,07.8,0000.0,0000.57,0002.59,0000.34
2023-02-09 09:22:00,,0828.0,5.02,0.00,22.8,22.8,00.0,31.5,24.7,07.8,0000.0,0000.57,0002.59,0000.34
2023-02-09 09:23:00,,0827.9,5.02,0.00,22.8,22.3,00.0,31.5,24.6,07.9,0000.0,0000.57,0002.58,0000.35
2023-02-09 09:24:00,,0828.0,4.98,0.00,22.7,21.9,00.0,31.5,24.5,07.9,0000.0,0000.53,0002.47,0000.35
2023-02-09 09:25:00,,0828.0,4.93,0.00,22.7,21.6,00.0,31.5,24.4,07.8,0000.0,0000.52,0002.35,0000.35
2023-02-09 09:26:00,,0828.0,5.04,0.00,22.7,21.4,00.0,31.5,24.4,07.9,0000.0,0000.49,0002.21,0000.35
2023-02-09 09:27:00,,0827.9,5.01,0.00,22.7,21.2,00.0,31.5,24.4,07.9,0000.0,0000.50,0002.21,0000.36
2023-02-09 09:28:00,,0827.9,5.00,0.00,22.7,21.1,00.0,31.5,24.4,07.7,0000.0,0000.50,0002.22,0000.36
2023-02-09 09:29:00,,0828.0,5.00,0.00,22.6,21.0,00.0,31.5,24.3,07.7,0000.0,0000.55,0003.71,0000.36
2023-02-09 09:30:00,,0828.0,4.99,0.00,22.6,21.0,00.0,31.5,24.3,07.8,0000.0,0000.65,0004.52,0000.38
2023-02-09 09:31:00,,0828.0,5.02,0.00,22.6,20.9,00.0,31.5,24.3,07.9,0000.0,0000.78,0005.32,0000.39
2023-02-09 09:32:00,,0827.9,5.00,0.00,22.6,20.9,00.0,31.5,24.3,08.0,0000.0,0001.01,0006.14,0000.42
2023-02-09 09:33:00,,0827.8,4.98,0.00,22.6,20.9,00.0,31.5,24.3,07.9,0000.0,0001.18,0006.95,0000.43
2023-02-09 09:34:00,,0827.9,5.01,0.00,22.5,20.9,00.0,31.5,24.2,08.0,0000.0,0001.31,0007.85,0000.44
2023-02-09 09:35:00,,0827.8,5.01,0.00,22.5,20.9,00.0,31.5,24.2,08.1,0000.0,0001.42,0008.58,0000.45
2023-02-09 09:36:00,,0827.9,5.00,0.00,22.5,20.8,00.0,31.4,24.2,08.2,0000.0,0001.52,0008.85,0000.46
2023-02-09 09:37:00,,0827.8,4.99,0.00,22.5,20.8,00.0,31.4,24.2,08.3,0000.0,0001.62,0009.05,0000.46
2023-02-09 09:38:00,,0827.9,4.99,0.00,22.5,20.8,00.0,31.4,24.2,08.3,0000.0,0001.70,0009.24,0000.47
2023-02-09 09:39:00,,0828.0,5.01,0.00,22.5,20.8,00.0,31.4,24.2,08.3,0000.0,0001.75,0009.37,0000.47
2023-02-09 09:40:00,,0827.9,5.03,0.00,22.5,21.3,00.0,31.4,24.3,08.4,0000.0,0001.76,0008.94,0000.47
2023-02-09 09:41:00,,0828.0,4.99,0.00,22.6,22.3,00.0,31.3,24.5,08.4,0000.0,0001.70,0008.18,0000.45
2023-02-09 09:42:00,,0828.0,5.02,0.00,22.7,23.2,00.0,31.4,24.8,08.4,0000.0,0001.58,0007.15,0000.45
2023-02-09 09:43:00,,0827.9,5.00,0.00,22.8,23.0,00.0,31.4,24.8,08.3,0000.0,0001.37,0006.36,0000.43
2023-02-09 09:44:00,,0828.0,4.99,0.00,22.8,22.6,00.0,31.5,24.7,08.3,0000.0,0001.18,0005.58,0000.40
2023-02-09 09:45:00,,0828.0,4.92,0.00,22.8,22.2,00.0,31.5,24.6,08.2,0000.0,0001.03,0004.15,0000.38
2023-02-09 09:46:00,,0828.0,4.96,0.00,22.8,21.9,00.0,31.5,24.6,08.2,0000.0,0000.91,0003.00,0000.36
2023-02-09 09:47:00,,0828.0,5.02,0.00,22.8,21.7,00.0,31.5,24.5,08.2,0000.0,0000.78,0002.27,0000.35
2023-02-09 09:48:00,,0828.0,4.90,0.00,22.7,21.6,00.0,31.5,24.5,08.3,0000.0,0000.70,0002.30,0000.33
2023-02-09 09:49:00,,0828.0,5.00,0.00,22.7,21.4,00.0,31.5,24.4,08.5,0000.0,0000.63,0001.97,0000.32
2023-02-09 09:50:00,,0828.0,5.03,0.00,22.7,21.3,00.0,31.5,24.4,08.7,0000.0,0000.58,0001.74,0000.32
2023-02-09 09:51:00,,0828.0,4.98,0.00,22.7,21.1,00.0,31.5,24.4,08.9,0000.0,0000.56,0001.43,0000.31
2023-02-09 09:52:00,,0828.0,4.99,0.00,22.7,21.0,00.0,31.5,24.3,08.9,0000.0,0000.55,0001.63,0000.30
2023-02-09 09:53:00,,0828.0,4.98,0.00,22.6,20.9,00.0,31.5,24.3,09.0,0000.0,0000.54,0001.70,0000.31
2023-02-09 09:54:00,,0827.9,4.99,0.00,22.6,20.9,00.0,31.5,24.3,09.1,0000.0,0000.53,0001.65,0000.31
2023-02-09 09:55:00,,0828.0,4.94,0.00,22.6,21.4,00.0,31.5,24.4,09.1,0000.0,0000.53,0001.65,0000.32
2023-02-09 09:56:00,,0828.0,5.01,0.00,22.7,22.4,00.0,31.5,24.6,09.0,0000.0,0000.53,0001.67,0000.32
2023-02-09 09:57:00,,0827.9,5.00,0.00,22.8,23.3,00.0,31.5,24.9,09.0,0000.0,0000.56,0001.72,0000.32
2023-02-09 09:58:00,,0828.0,4.99,0.00,22.9,23.0,00.0,31.5,24.9,08.8,0000.0,0000.56,0001.70,0000.32
2023-02-09 09:59:00,,0828.0,5.01,0.00,22.9,22.6,00.0,31.6,24.8,08.9,0000.0,0000.55,0001.36,0000.32
